Location: K�ln
(50.9455°N, 6.9544°E)
Time: 02:11:44
(UTC+01:00)

ISS - Pass Details

Date: 08 January 2018
Orbit: 401 x 406 km, 51.6° (Epoch: 17 January)

Event Time Altitude Azimuth Distance (km) Brightness Sun altitude
Exits shadow 05:07:54 11° 80° (E) 1,394 -0.3 -31.3°
Drops below altitude 10° 05:08:04 10° 80° (E) 1,457 -0.2 -31.3°
Sets 05:10:10 0° 81° (E) 2,329 1.2 -30.9°
